Wakefield, VA

11:16 AM EDT on August 23, 2019 (GMT -0400)
Wakefield Municipal

Weather History for KAKQ - June, 2019

Change the Weather History Date:

Monday, June 10, 2019

  Actual Average (KJGG) Record (KJGG)
Temperature  
Mean Temperature 78 °F -  
Max Temperature 84 °F 84 °F 102 °F (2008)
Min Temperature 72 °F 62 °F 51 °F (1960)
Cooling Degree Days 13    
Growing Degree Days 28 (Base 50)    
Moisture  
Dew Point 72 °F    
Average Humidity 89    
Maximum Humidity 94    
Minimum Humidity 69    
Precipitation  
Precipitation 0.65 in - - ()
Sea Level Pressure  
Sea Level Pressure 29.96 in    
Wind  
Wind Speed 3 mph (South)    
Max Wind Speed 13 mph    
Max Gust Speed 23 mph    
Visibility 5 miles    
Events Fog , Rain , Thunderstorm    
Averages and records for this station are not official NWS values.
T = Trace of Precipitation, MM = Missing Value Source: NWS Daily Summary

Daily Weather History Graph

Daily Weather History Graph

Search for Another Location

Airport or City:

Astronomy

Jun. 10, 2019 Rise Set
Actual Time 5:47 AM EDT 8:27 PM EDT
Civil Twilight 5:17 AM EDT 8:57 PM EDT
Nautical Twilight 4:39 AM EDT 9:35 PM EDT
Astronomical Twilight 3:56 AM EDT 10:18 PM EDT
Moon 1:27 PM EDT (6/10) 1:46 AM EDT (6/10)
Length of Visible Light 15h 40m
Length of Day
14h 39m
First Quarter, 55% of the Moon is Illuminated
Jun 10
First Quarter
Jun 17
Full
Jun 25
Last Quarter
Jul 2
New
Jul 9
First Quarter

Hourly Weather History & Observations

Time (EDT) Temp. Heat Index Dew Point Humidity Pressure Visibility Wind Dir Wind Speed Gust Speed Precip Events Conditions
12:06 AM 73.0 °F - 71.1 °F 93% 30.02 in 3.0 mi ESE 3.5 mph - 0.01 in Rain Light Rain
12:15 AM 73.0 °F - 71.1 °F 93% 30.02 in 3.0 mi ESE 3.5 mph - 0.02 in Rain Rain
12:41 AM 73.0 °F - 71.1 °F 93% 30.01 in 5.0 mi East 3.5 mph - 0.06 in Rain Light Rain
12:54 AM 73.0 °F - 71.1 °F 93% 30.01 in 7.0 mi Calm Calm - 0.06 in Rain Light Rain
1:17 AM 73.0 °F - 71.1 °F 93% 30.01 in 7.0 mi Calm Calm - 0.00 in   Overcast
1:27 AM 73.0 °F - 71.1 °F 93% 30.01 in 8.0 mi Calm Calm - 0.00 in   Mostly Cloudy
1:39 AM 73.0 °F - 71.1 °F 93% 30.01 in 6.0 mi Calm Calm - 0.00 in   Scattered Clouds
1:54 AM 73.0 °F - 71.1 °F 93% 30.00 in 6.0 mi Calm Calm - 0.00 in   Partly Cloudy
2:17 AM 73.0 °F - 71.1 °F 93% 30.00 in 7.0 mi Calm Calm - N/A   Mostly Cloudy
2:36 AM 73.0 °F - 70.0 °F 90% 30.00 in 7.0 mi Calm Calm - N/A   Scattered Clouds
2:54 AM 72.0 °F - 70.0 °F 93% 29.99 in 5.0 mi Calm Calm - N/A   Clear
3:31 AM 72.0 °F - 70.0 °F 93% 29.99 in 5.0 mi Calm Calm - N/A   Mostly Cloudy
3:54 AM 72.0 °F - 70.0 °F 93% 29.99 in 4.0 mi Calm Calm - N/A   Overcast
4:46 AM 72.0 °F - 70.0 °F 93% 29.98 in 4.0 mi Calm Calm - N/A   Overcast
4:54 AM 72.0 °F - 70.0 °F 93% 29.98 in 4.0 mi Calm Calm - N/A   Overcast
5:14 AM 72.0 °F - 70.0 °F 93% 29.98 in 5.0 mi Calm Calm - N/A   Overcast
5:44 AM 72.0 °F - 70.0 °F 93% 29.98 in 4.0 mi Calm Calm - N/A   Scattered Clouds
5:54 AM 73.0 °F - 71.1 °F 93% 29.98 in 4.0 mi Calm Calm - N/A   Mostly Cloudy
6:08 AM 73.0 °F - 71.1 °F 93% 29.98 in 2.5 mi Calm Calm - N/A   Mostly Cloudy
6:24 AM 73.0 °F - 71.1 °F 93% 29.99 in 3.0 mi Calm Calm - N/A   Overcast
6:29 AM 73.0 °F - 71.1 °F 93% 29.99 in 3.0 mi Variable 3.5 mph - N/A   Overcast
6:54 AM 73.0 °F - 71.1 °F 93% 29.99 in 3.0 mi Variable 3.5 mph - N/A   Overcast
7:30 AM 73.9 °F - 72.0 °F 93% 30.00 in 3.0 mi South 3.5 mph - N/A   Overcast
7:54 AM 75.0 °F - 72.0 °F 90% 30.00 in 4.0 mi South 5.8 mph - N/A   Overcast
8:02 AM 75.0 °F - 72.0 °F 90% 30.00 in 5.0 mi SSW 5.8 mph - N/A   Overcast
8:54 AM 75.0 °F - 72.0 °F 90% 30.00 in 4.0 mi SSW 3.5 mph - N/A   Overcast
9:27 AM 75.9 °F - 72.0 °F 87% 29.99 in 6.0 mi Variable 3.5 mph - N/A   Mostly Cloudy
9:50 AM 77.0 °F - 71.6 °F 83% 29.99 in 7.0 mi SSE 3.5 mph - N/A   Mostly Cloudy
9:54 AM 77.0 °F - 72.0 °F 84% 29.99 in 8.0 mi Variable 4.6 mph - N/A   Mostly Cloudy
10:09 AM 78.1 °F - 73.0 °F 84% 29.99 in 8.0 mi Variable 5.8 mph - N/A   Mostly Cloudy
10:39 AM 79.0 °F - 72.0 °F 79% 29.99 in 9.0 mi South 5.8 mph - N/A   Overcast
10:54 AM 79.0 °F - 72.0 °F 79% 29.99 in 7.0 mi Variable 6.9 mph - 0.00 in Rain Light Rain
11:23 AM 81.0 °F 85.2 °F 72.0 °F 74% 29.98 in 9.0 mi South 6.9 mph - 0.00 in   Scattered Clouds
11:54 AM 84.0 °F 90.2 °F 73.0 °F 69% 29.96 in 10.0 mi Variable 4.6 mph - 0.00 in   Mostly Cloudy
12:03 PM 84.0 °F 91.2 °F 73.9 °F 72% 29.96 in 10.0 mi Variable 4.6 mph - N/A   Scattered Clouds
12:42 PM 81.0 °F 85.8 °F 73.0 °F 77% 29.96 in 1.5 mi South 5.8 mph - 0.00 in Rain Rain
12:52 PM 80.6 °F 85.4 °F 73.4 °F 79% 29.95 in 3.0 mi Calm Calm - 0.02 in Rain Light Rain
12:54 PM 81.0 °F 86.2 °F 73.9 °F 79% 29.94 in 8.0 mi Calm Calm - 0.02 in   Mostly Cloudy
1:41 PM 75.9 °F - 72.0 °F 87% 29.96 in 2.5 mi West 12.7 mph 23.0 mph 0.00 in Rain Light Rain
1:43 PM 75.0 °F - 71.1 °F 87% 29.96 in 0.8 mi West 10.4 mph 23.0 mph 0.00 in Rain Heavy Rain
1:52 PM 73.4 °F - 71.6 °F 94% 29.95 in 0.2 mi West 8.1 mph - 0.28 in Fog , Rain Heavy Rain
1:54 PM 73.9 °F - 71.1 °F 91% 29.95 in 0.2 mi WSW 9.2 mph - 0.33 in Fog , Rain Heavy Rain
2:03 PM 73.9 °F - 71.1 °F 91% 29.95 in 0.5 mi SW 4.6 mph - 0.10 in Fog , Rain Heavy Rain
2:17 PM 75.0 °F - 72.0 °F 90% 29.94 in 2.5 mi South 3.5 mph - 0.15 in Rain Light Rain
2:24 PM 75.0 °F - 72.0 °F 90% 29.94 in 10.0 mi Calm Calm - 0.15 in   Mostly Cloudy
2:50 PM 77.0 °F - 73.4 °F 89% 29.93 in 9.0 mi Variable 3.5 mph - 0.15 in Rain , Thunderstorm Light Rain
2:54 PM 77.0 °F - 73.0 °F 88% 29.93 in 8.0 mi Calm Calm - 0.15 in Rain , Thunderstorm Light Rain
3:35 PM 78.1 °F - 73.0 °F 84% 29.92 in 7.0 mi Variable 5.8 mph - 0.00 in Rain Light Rain
3:54 PM 80.1 °F 84.5 °F 73.9 °F 81% 29.91 in 10.0 mi Variable 4.6 mph - 0.00 in   Mostly Cloudy
4:31 PM 78.1 °F - 73.0 °F 84% 29.90 in 10.0 mi Calm Calm - N/A   Mostly Cloudy
4:54 PM 77.0 °F - 73.0 °F 88% 29.90 in 10.0 mi Calm Calm - N/A   Mostly Cloudy
5:27 PM 77.0 °F - 73.9 °F 90% 29.91 in 1.8 mi SSE 3.5 mph - 0.02 in Rain Rain
5:40 PM 75.9 °F - 73.0 °F 91% 29.90 in 2.0 mi Variable 4.6 mph - 0.04 in Rain Light Rain
5:54 PM 75.9 °F - 73.0 °F 91% 29.90 in 1.2 mi Variable 3.5 mph - 0.05 in Rain Heavy Rain
6:02 PM 75.9 °F - 73.0 °F 91% 29.90 in 1.2 mi South 8.1 mph - 0.02 in Rain Rain
6:09 PM 75.9 °F - 73.0 °F 91% 29.89 in 3.0 mi Variable 3.5 mph - 0.03 in Rain Light Rain
6:54 PM 75.0 °F - 73.0 °F 94% 29.88 in 8.0 mi Calm Calm - 0.04 in Rain Light Rain
7:54 PM 75.0 °F - 72.0 °F 90% 29.88 in 9.0 mi Calm Calm - 0.00 in   Partly Cloudy
8:54 PM 75.0 °F - 73.0 °F 94% 29.89 in 7.0 mi Calm Calm - 0.00 in   Mostly Cloudy
9:54 PM 75.0 °F - 72.0 °F 90% 29.89 in 8.0 mi SSW 3.5 mph - 0.00 in   Mostly Cloudy
10:54 PM 73.9 °F - 72.0 °F 93% 29.89 in 7.0 mi Variable 3.5 mph - N/A   Mostly Cloudy
11:54 PM 73.9 °F - 71.1 °F 91% 29.88 in 9.0 mi Variable 3.5 mph - N/A   Scattered Clouds